User: anonymous   Login
Location: Caltech
(34.1382°N, 118.1253°W)
Time: 21:30:17
(UTC-07:00)
Language:

Iridium 95 - Orbit

View from above orbital plane
View from above orbital plane
View from above satellite
View from above satellite

Ground track
Ground track

The orbit data is extracted from the following two-line orbital elements,

1 27375U 02005D   15245.39441454  .00000166  00000-0  52063-4 0  9995
2 27375  86.4006 200.7982 0002350  83.4353 276.7110 14.34221084717204
Epoch (UTC): 02 September 2015 09:27:57
Eccentricity: 0.0002350
inclination: 86.4006°
perigee height: 776 km
apogee height: 779 km
right ascension of ascending node: 200.7982°
argument of perigee: 83.4353°
revolutions per day: 14.34221084
mean anomaly at epoch: 276.7110°
orbit number at epoch: 71720

The dashed part of the orbit path shows where the satellite is in the earth's shadow,  

DLR